www.pogodaiklimat.ru

Погода и климат >> Архив погоды >> Россия >> Крым >> Евпатория


ПОГОДА в Евпатории

АРХИВ ПОГОДЫ в Евпатории

Время (UTC), дата Ветер
(напр.,м/с)
 
Видим.   Явления Облачность Т
(С)
Тd
(С)
f
(%)
Тe
(С)
Тes
(С)
Комфортность P
(гПа)
Po
(гПа)
Тmin
(С)
Tmax
(С)
R
(мм)
R24
(мм)
S
(см)
03 10.12 Ю 8
{16}
10 км ясно +12.0 +8.5 79 +9 +9 тепло 1010.5 1009.3 +11.6
06 10.12 ЮЗ 9
{17}
20 км 2 балла +12.1 +8.4 78 +9 +9 тепло 1010.5 1009.3 +11.6
09 10.12 Ю 7
{14}
50 км 5 баллов +13.9 +7.0 63 +12 +12 тепло 1007.9 1006.7
12 10.12 Ю 12
{19}
10 км слабый ливневой дождь 10 баллов +11.8 +8.5 80 +8 +8 тепло 1005.2 1004.0
15 10.12 З 9
{17}
10 км в посл. час ливневой дождь 10 баллов +7.5 +5.6 88 +2 +2 по сезону 1009.2 1008.0 3
18 10.12 З 7
{19}
10 км в посл. час ливневой дождь 10 баллов +5.9 +1.6 74 +1 +1 по сезону 1011.9 1010.7 +14.6 3
21 10.12 З 9
{16}
10 км 10 баллов +5.4 -1.3 62 -0 -0 по сезону 1017.2 1016.0
00 11.12 З 6
{13}
10 км 10 баллов +6.1 -1.8 57 +2 +2 по сезону 1018.5 1017.3
03 11.12 З 6
{12}
10 км 4 балла +6.9 +1.0 66 +3 +3 тепло 1019.9 1018.7 +4.9 0.2
06 11.12 ЮЗ 6
{12}
50 км 10 баллов +7.7 +0.9 62 +4 +4 тепло 1021.2 1020.0 +4.9 0.1
09 11.12 ЮЗ 5
{12}
20 км 6 баллов +9.8 +1.9 58 +7 +8 тепло 1021.2 1020.0
12 11.12 ЮЗ 6
{11}
50 км 10 баллов +10.3 +4.2 66 +7 +7 тепло 1019.9 1018.7
15 11.12 Ю 7
{13}
20 км 10 баллов +10.6 +5.8 72 +7 +7 тепло 1019.9 1018.7
18 11.12 ЮЗ 5
{13}
10 км 10 баллов +10.6 +7.7 82 +8 +8 тепло 1021.2 1020.0 +11.0
21 11.12 Ю 8
{14}
10 км ясно +11.0 +8.0 82 +7 +7 тепло 1019.9 1018.7
00 12.12 ЮЗ 5
{14}
10 км 2 балла +11.4 +9.1 86 +9 +9 тепло 1019.9 1018.7
03 12.12 ЮЗ 4
{12}
10 км ясно +11.2 +9.1 87 +9 +9 тепло 1019.9 1018.7 +10.4
06 12.12 ЮЗ 5
{10}
50 км 10 баллов +11.4 +9.1 86 +9 +9 тепло 1019.9 1018.7 +10.4
09 12.12 ЮЗ 3
{10}
20 км 10 баллов +12.7 +9.5 81 +11 +11 тепло 1019.9 1018.7
12 12.12 ЮЗ 5 20 км 10 баллов +12.5 +9.9 84 +10 +10 тепло 1019.9 1018.7
15 12.12 ЮЗ 4 20 км 4 балла +11.2 +9.6 90 +9 +9 тепло 1019.9 1018.7
18 12.12 ЮЗ 4
{11}
10 км ясно +11.2 +9.6 90 +9 +9 тепло 1019.9 1018.7 +13.5
21 12.12 ЮЗ 4 10 км ясно +11.0 +9.6 91 +9 +9 тепло 1019.9 1018.7
00 13.12 ЮЗ 6 10 км ясно +10.9 +10.0 94 +8 +8 тепло 1019.9 1018.7
03 13.12 ЮЗ 3
{10}
10 км ясно +10.6 +9.8 95 +8 +8 тепло 1018.5 1017.3 +10.5
06 13.12 ЮЗ 2 20 км ясно +10.8 +10.0 95 +9 +9 тепло 1018.5 1017.3 +10.4
09 13.12 ЮЗ 3 20 км ясно +12.5 +10.4 87 +11 +13 тепло 1018.5 1017.3
12 13.12 ЮЗ 4 20 км ясно +12.7 +10.6 87 +11 +12 тепло 1017.2 1016.0
15 13.12 З 4 20 км 2 балла +10.9 +10.1 95 +8 +8 тепло 1017.2 1016.0
18 13.12 ЮЗ 4
{10}
10 км 7 баллов +10.9 +10.0 94 +8 +8 тепло 1017.2 1016.0 +13.5
21 13.12 ЮЗ 4 10 км 9 баллов +10.5 +9.3 92 +8 +8 тепло 1015.9 1014.7
00 14.12 ЮЗ 4 10 км 2 балла +10.5 +9.7 95 +8 +8 тепло 1014.5 1013.3
03 14.12 ЮЗ 4
{10}
10 км 10 баллов +11.0 +10.1 94 +8 +8 тепло 1013.2 1012.0 +10.0
06 14.12 ЮЗ 4
{10}
20 км 10 баллов +11.6 +9.7 88 +9 +9 тепло 1013.2 1012.0 +10.0
09 14.12 ЮЗ 4 20 км 10 баллов +11.7 +9.9 89 +9 +9 тепло 1013.2 1012.0
12 14.12 ЮЗ 3 10 км 10 баллов +11.6 +10.7 94 +10 +10 тепло 1011.9 1010.7
15 14.12 ЮЗ 3 10 км 10 баллов +11.4 +10.5 94 +9 +9 тепло 1011.9 1010.7
18 14.12 З 3 10 км 10 баллов +11.2 +9.6 90 +9 +9 тепло 1013.2 1012.0 +12.3
21 14.12 ЮЗ 2 10 км 9 баллов +10.4 +9.8 96 +9 +9 тепло 1013.2 1012.0
00 15.12 З 3 10 км 10 баллов +9.8 +8.6 92 +7 +7 тепло 1013.2 1012.0
03 15.12 Ю 3 10 км 10 баллов +10.4 +9.5 94 +8 +8 тепло 1013.2 1012.0 +9.6
06 15.12 ЮЗ 3 10 км слабый ливневой дождь 10 баллов +10.6 +9.7 94 +8 +8 тепло 1014.5 1013.3 +9.6 0.0
09 15.12 Ю 4 20 км 4 балла +11.5 +9.2 86 +9 +10 тепло 1014.5 1013.3
12 15.12 ЮЗ 4 4000 м дымка 10 баллов +11.8 +10.5 92 +10 +10 тепло 1014.5 1013.3
15 15.12 З 3 10 км 10 баллов +10.8 +10.0 95 +9 +9 тепло 1015.9 1014.7 0.0
18 15.12 ЮЗ 3 10 км 10 баллов +11.0 +9.7 92 +9 +9 тепло 1015.9 1014.7 +13.0
21 15.12 Ю 4
{10}
10 км ясно +11.1 +9.5 90 +9 +9 тепло 1015.9 1014.7
00 16.12 Ю 5 10 км 10 баллов +11.4 +9.1 86 +9 +9 тепло 1014.5 1013.3
03 16.12 Ю 4 10 км 10 баллов +12.0 +9.2 83 +10 +10 тепло 1013.2 1012.0 +10.8
06 16.12 Ю 9
{13}
20 км 10 баллов +13.0 +7.4 69 +10 +10 тепло 1011.9 1010.7 +10.8
09 16.12 Ю 8
{12}
20 км 10 баллов +13.3 +7.3 67 +11 +11 тепло 1011.9 1010.7
12 16.12 Ю 7
{11}
20 км 10 баллов +13.9 +8.3 69 +12 +12 тепло 1010.5 1009.3
15 16.12 Ю 10
{14}
20 км 7 баллов +13.2 +8.1 71 +10 +10 тепло 1011.9 1010.7
18 16.12 ЮЗ 8
{13}
10 км 4 балла +13.5 +8.1 70 +11 +11 тепло 1011.9 1010.7 +14.8
21 16.12 ЮЗ 8
{14}
10 км 7 баллов +13.6 +8.4 71 +11 +11 тепло 1011.9 1010.7

 

Местоположение метеостанции Евпатория (Крым, Россия): широта 45.18 долгота 33.37 высота над уровнем моря 10 м.

В архиве по умолчанию представлена погода в Евпатории за последнюю неделю. Архивные данные за месяц целиком и за предыдущие месяцы, начиная с января 2011 года, Вы можете получить, выбрав интересующий диапазон дат из раскрывающегося списка и нажав кнопку "Ввод!".

Внимание! Время в таблицах - всемирное. Для получения местного времени необходимо прибавить поправку, которая в Евпатории равна 3 ч.

Смотрите также архив погоды в соседних городах и на ближайших метеорологических станциях:

Погода в Симферополе (Крым, Россия) (50 км)
Погода в Севастополе (город Севастополь, Россия) (64 км)
Погода в Черноморском (Крым, Россия) (65 км)
Погода в Херсонесском Маяке (город Севастополь, Россия) (67 км)
Погода в Клепинино (Крым, Россия) (74 км)
Погода в Ай-Петри (Крым, Россия) (97 км)
Погода в Хорлах (Херсонская область, Украина) (97 км)
Погода в Белогорске (Крым, Россия) (98 км)
Погода в Алуште (Крым, Россия) (99 км)
Погода в Ялте (Крым, Россия) (100 км)

Пояснения к столбцам:

Ветер - указаны скорость ветра в м/с - средняя за 10 мин, порывы в срок и между сроками (в фигурных скобках) и направление, откуда дует ветер: С - северный, СВ - северо-восточный, В - восточный, ЮВ - юго-восточный, Ю - южный, ЮЗ - юго-западный, З - западный, СЗ - северо-западный.
Видимость - горизонтальная дальность видимости в метрах или километрах. При видимости от 1 до 10 км при отсутствии осадков обычно наблюдается дымка, при ухудшении видимости до 1 км и менее - туман. В сухую погоду видимость может ухудшаться дымом, пылью или мглою.
Явления - указаны атмосферные явления, наблюдавшиеся в срок или в последний час перед сроком; фигурными скобками обозначены явления, наблюдавшиеся между сроками (за 1-3 часа до срока); квадратными скобками обозначены град или гололедные отложения с указанием их диаметра в мм.
Облачность - указаны через наклонную черту общая и нижняя облачность в баллах и высота нижней границы облаков в метрах; квадратными скобками обозначены формы облаков: Ci - перистые, Cs - перисто-слоистые, Cc - перисто-кучевые, Ac - высококучевые, As - высокослоистые, Sc - слоисто-кучевые, Ns - слоисто-дождевые, Cu - кучевые, Cb - кучево-дождевые. Подробнее классификацию облаков см. в Атласе облаков (PDF).
T - Температура воздуха - температура, измеренная на высоте 2 м над землей.
Td - Температура точки росы - температура, при понижении до которой содержащийся в воздухе водяной пар достигнет насыщения.
f - Относительная влажность воздуха - влажноcть воздуха, измеренная на высоте 2 м над землей.
Te - Эффективная температура - температура, которую ощущает одетый по сезону человек в тени. Характеристика душности погоды. При расчете учитывается влияние влажности воздуха и скорости ветра на теплоощущения человека.
Tes - Эффективная температура на солнце - температура, которую ощущает человек, с поправкой на солнечный нагрев. Характеристика знойности погоды. Зависит от высоты солнца над горизонтом, облачности и скорости ветра. Ночью, в пасмурную погоду, а также при ветре 12 м/с и более поправка равна нулю.
P - Атмосферное давление - приведенное к уровню моря атмосферное давление.
Po - Атмосферное давление - измеренное на уровне метеостанции атмосферное давление.
Tmin - Минимальная температура - минимум температуры воздуха на высоте 2 м над землей.
Tmax - Максимальная температура - максимум температуры воздуха на высоте 2 м над землей.
R - Количество осадков - Количество выпавших осадков за период времени, мм. При наведении курсора мыши на число - период времени, за который выпало указанное количество осадков.
R24 - Количество осадков - Количество выпавших осадков за 24 часа, мм.
S - Снежный покров - Высота снежного покрова, см. При наведении курсора мыши на число - состояние снежного покрова и степень покрытия местности в баллах.